SCP
0 0 0 -0 -0 0 0 -0 -0 0 0 0 0 0 0 0 -0 0 0 0 0 0 0 0 0 0 0 0 0 0 0 0 0 -0 0 -0 0 0 0 0 0 0 0 0 0 0 0 0 0
0 0 0 0 0 0 0 0 0 0 0 0 0 0 0 0 0 0 0 0 0 0 0 0 0 0 0 0 0 0 0 0 0 0 0 0 0 0 0 0 0 0 0 0 0 0 0 0 0
0 0 0 0 0 0 0 0 0 0 0 0 0 0 0 0 0 0 0 0 0 0 0 0 0 0 -0 0 0 0 0 0 0 0 0 0 0 0 0 0 0 0 0 0 0 0 0 0 0
0 0 0 0 0 0 0 0 0 0 0 0 0 0 0 0 0 0 0 0 0 0 0 0 0 0 0 0 0 0 0 0 0 0 0 0 0 0 0 0 0 0 0 0 0 0 0 0 0
0 0 0 0 0 0 0 0 0 0 0 0 0 0 0 0 0 0 0 0 0 0 0 0 0 0 0 0 0 0 0 0 0 0 0 0 0 0 0 0 0 0 0 0 0 0 0 0 0
0 0 0 0 0 0 0 0 0 0 0 0 0 0 0 0 0 0 0 0 0 0 0 0 0 0 0 0 0 0 0 0 0 0 0 0 0 0 0 0 0 0 0 0 0 0 0 0 0
0 0 0 0 0 0 0 0 0 0 0 0 0 0 0 0 0 0 0 0 0 0 0 0 0 0 0 0 0 0 0 0 0 0 0 0 0 0 0 0 0 0 0 0 0 0 0 0 0
0 0 0 0 0 0 0 0 0 0 0 0 0 0 0 0 0 0 0 0 0 0 0 0 0 0 0 0 0 0 0 0 0 0 0 0 0 0 0 0 0 0 0 0 0 0 0 0 0
0 0 0 0 0 0 0 0 0 0 0 0 0 0 0 0 0 0 0 0 0 0 0 0 0 0 0 0 0 0 0 0 0 0 0 0 0 0 0 0 0 0 0 0 0 0 0 0 0
0 0 0 0 0 0 0 0 0 0 0 0 0 0 0 0 0 0 0 0 0 0 0 0 0 0 0 0 0 0 0 0 0 0 0 0 0 0 0 0 0 0 0 0 0 0 0 0 0
0 0 0 0 0 0 0 0 0 0 0 0 0 0 0 0 0 0 0 0 0 0 0 0 0 0 0 0 0 0 0 0 0 0 0 0 0 0 0 0 0 0 0 0 0 0 0 0 0
0 0 0 0 0 0 0 0 0 0 0 0 0 0 0 0 0 0 0 0 0 0 0 0 0 0 0 0 0 0 0 0 0 0 0 0 0 0 0 0 0 0 0 0 0 0 0 0 0
0 0 0 0 0 0 0 0 0 0 0 0 0 0 0 0 0 0 0 0 0 0 0 0 0 0 0 0 0 0 0 0 0 0 0 0 0 0 0 0 0 0 0 0 0 0 0 0 0
0 0 0 0 0 0 0 0 0 0 0 0 0 0 0 0 0 0 0 0 0 0 0 0 0 0 0 0 0 0 0 0 0 0 0 0 0 0 0 0 0 0 0 0 0 0 0 0 0
0 0 0 0 0 0 0 0 0 0 0 0 0 0 0 0 0 0 0 0 0 0 0 0 0 0 0 0 0 0 0 0 0 0 0 0 0 0 0 0 0 0 0 0 0 0 0 0 0
0 0 0 0 0 0 0 0 0 0 0 0 0 0 0 0 0 0 0 0 0 0 0 0 0 0 0 0 0 0 0 0 0 0 0 0 0 0 0 0 0 0 0 0 0 0 0 0 0
0 0 0 0 0 0 0 0 0 0 0 0 0 0 0 0 0 0 0 0 0 0 0 0 0 0 0 0 0 0 0 0 0 0 0 0 0 0 0 0 0 0 0 0 0 0 0 0 0
-0 0 0 0 0 0 0 0 0 0 0 0 0 0 0 0 0 0 0 0 0 0 0 0 0 0 0 0 0 0 0 0 0 0 0 0 0 0 0 0 0 0 0 0 0 0 0 0 0
-0 0 0 0 0 0 0 0 0 0 0 0 0 0 0 0 0 0 0 0 0 0 0 0 0 0 0 0 0 0 0 0 0 0 0 0 0 0 0 0 0 0 0 0 0 0 0 0 0
0 0 0 0 0 0 0 0 0 0 0 0 0 0 0 0 0 0 0 0 0 0 0 0 0 0 0 0 0 0 0 0 0 0 0 0 0 0 0 0 0 0 0 0 0 0 0 0 0
0 0 0 0 0 0 0 0 0 0 0 0 0 0 0 0 0 0 0 0 0 0 0 0 0 0 0 0 0 0 0 0 0 0 0 0 0 0 0 0 0 0 0 0 0 0 0 0 0
0 0 0 0 0 0 0 0 0 0 0 0 0 0 0 0 0 0 0 0 0 0 0 0 0 0 0 0 0 0 0 0 0 0 0 0 0 0 0 0 0 0 0 0 0 0 0 0 0
0 0 0 0 0 0 0 0 0 0 0 0 0 0 0 0 0 0 0 0 0 0 0 0 0 0 0 0 0 0 0 0 0 0 0 0 0 0 0 0 0 0 0 0 0 0 0 0 0
0 0 0 0 0 0 0 0 0 0 0 0 0 0 0 0 0 0 0 0 0 0 0 0 0 0 0 0 0 0 0 0 0 0 0 0 0 0 0 0 0 0 0 0 0 0 0 0 0
0 0 0 0 0 0 0 0 0 0 0 0 0 0 0 0 0 0 0 0 0 0 0 0 0 0 0 0 -0 -0 -0 0 0 0 0 0 0 0 0 0 0 0 0 0 0 0 0 0 0
0 0 0 0 0 0 0 0 0 0 0 0 0 0 0 0 0 0 0 0 0 0 0 0 0 -0 -0 -0 -0 -0 -0 0 0 0 0 0 0 0 0 0 0 0 0 0 0 0 0 0 0
0 0 0 0 0 0 0 0 0 0 0 0 0 0 0 0 0 0 0 0 0 0 0 0 0 -0 -0 -0 -0 -0 0 0 0 0 0 0 0 0 0 0 0 0 0 0 0 0 0 0 0
0 0 0 0 0 0 0 0 0 0 0 0 0 0 0 0 0 0 0 0 0 0 0 -0 -0 -0 -0 -0 0 0 0 0 0 0 0 0 0 0 0 0 0 0 0 0 0 0 0 0 0
0 0 0 0 0 0 0 0 0 0 0 0 0 0 0 0 0 -0 0 0 -0 -0 -0 -0 -0 -0 -0 -0 0 0 0 0 0 0 0 0 0 0 0 0 0 0 0 0 0 0 0 0 0
0 0 0 0 0 0 0 0 0 0 0 0 0 0 0 0 0 0 0 0 -0 -0 -0 -0 -0 -0 -0 0 0 0 0 0 0 0 0 0 0 0 0 0 0 0 0 0 0 0 0 0 0
Wind_Speed_500mb
9 7 8 3 6 7 2 15 14 3 8 14 14 22 19 12 7 8 5 8 14 2 4 2 3 7 9 9 10 12 18 24 10 3 7 14 16 15 14 14 15 15 15 16 16 15 14 13 12
6 4 3 3 7 3 9 11 19 9 10 17 22 23 12 9 16 10 8 13 15 6 6 3 3 7 10 14 17 16 9 14 9 6 9 12 14 16 17 16 16 17 17 18 17 17 16 14 12
0 3 5 6 5 4 9 11 12 14 15 10 9 20 9 7 10 5 12 14 10 7 9 10 5 7 14 21 15 6 4 7 6 5 9 12 11 11 14 16 16 16 16 16 16 16 16 15 14
7 4 3 7 7 10 7 6 14 13 15 17 16 15 15 7 3 8 11 9 6 6 7 12 7 8 15 11 4 1 5 9 10 11 11 13 11 13 13 14 15 15 15 15 16 16 16 16 15
7 3 6 2 6 4 9 20 20 7 10 22 8 11 11 9 12 7 9 7 4 8 7 9 6 10 11 6 3 8 10 12 15 14 14 15 15 13 12 11 14 17 17 18 17 17 17 16 15
4 4 8 3 9 7 9 24 15 20 18 17 16 11 7 8 7 9 12 12 5 1 7 5 6 6 11 13 12 14 15 17 17 14 14 16 14 13 14 11 10 14 17 19 19 19 19 18 18
7 7 6 6 11 9 9 18 17 11 16 15 11 8 12 9 8 11 7 6 8 11 15 9 9 9 14 17 14 19 21 22 19 18 18 17 18 16 16 16 14 15 19 20 20 20 21 21 21
6 8 5 13 4 5 17 9 11 15 7 7 11 6 8 13 12 15 13 12 12 10 3 5 7 14 15 21 20 19 17 21 21 18 17 15 16 17 17 19 19 19 19 21 22 24 23 23 23
7 9 7 9 10 3 18 10 14 8 8 13 11 6 9 10 11 13 9 9 9 7 14 16 16 18 23 24 23 26 24 22 22 21 17 16 17 17 20 22 22 23 22 23 24 24 25 24 23
13 9 6 5 4 6 11 14 16 12 5 13 20 11 6 2 12 7 3 5 10 13 12 15 16 20 24 25 27 30 30 27 23 22 22 23 25 25 24 25 24 24 23 24 25 26 26 26 25
12 6 8 13 16 13 12 12 15 10 10 13 10 7 1 3 7 6 3 6 8 12 19 21 19 24 27 27 28 27 26 26 25 25 26 26 26 26 26 26 25 26 26 27 27 27 28 28 26
12 26 13 6 12 5 8 13 7 9 7 3 5 4 2 3 5 8 4 7 9 8 14 21 25 25 27 30 31 30 28 26 27 25 25 26 27 28 29 29 29 28 28 28 28 27 27 28 28
14 7 15 8 11 7 8 7 5 5 6 6 9 4 7 10 8 9 2 6 7 11 19 24 28 25 27 29 31 32 33 33 32 32 30 31 31 30 31 31 31 32 31 30 31 31 29 29 29
14 21 11 8 13 4 10 7 9 2 4 1 8 7 8 8 6 9 16 7 1 7 10 19 26 34 34 31 33 33 34 34 33 34 33 33 35 34 34 35 35 35 35 34 34 33 33 31 31
16 8 4 19 19 5 20 7 3 7 7 6 15 11 15 19 10 6 4 6 11 16 21 24 27 30 37 38 36 36 34 36 35 35 35 34 35 36 38 39 39 39 37 37 36 35 35 33 32
2 8 6 8 28 10 16 3 1 2 3 8 23 23 24 19 5 4 10 11 13 15 17 21 24 26 31 36 39 40 40 40 37 38 39 36 37 38 40 42 42 42 40 39 38 37 36 35 35
14 2 3 5 15 11 12 5 29 24 6 15 9 28 28 19 11 15 20 19 22 25 28 28 29 30 31 32 33 40 43 45 45 41 43 41 40 40 41 43 44 44 43 42 41 39 38 37 35
6 6 8 7 13 15 13 11 22 39 49 52 42 31 30 25 27 25 27 27 27 28 29 30 32 33 31 29 28 36 43 41 40 40 41 42 45 45 45 45 46 48 47 44 43 42 39 38 37
6 4 8 4 10 13 9 9 11 33 51 54 47 42 36 34 26 27 29 29 30 32 34 36 35 36 35 32 33 36 41 40 39 39 40 44 47 49 48 48 47 49 51 49 46 45 43 38 35
14 8 9 13 13 10 10 9 8 26 31 47 47 47 41 35 33 34 36 39 40 43 43 42 41 41 40 37 35 37 42 44 43 44 47 52 56 55 55 51 49 49 51 52 49 48 45 41 34
6 6 5 10 16 2 3 3 6 14 41 45 49 49 48 47 45 43 43 44 46 50 50 49 46 45 45 43 42 40 38 38 41 37 36 40 50 55 53 52 52 53 54 53 51 49 48 45 39
6 7 9 11 11 2 11 7 8 9 14 29 42 45 43 38 37 40 44 46 47 49 48 49 51 52 52 51 50 49 49 52 50 50 50 53 57 61 61 61 58 57 57 56 54 51 51 50 46
8 4 4 3 5 6 12 7 6 12 7 11 34 40 41 38 40 42 43 43 43 46 49 50 52 53 54 54 54 56 56 56 56 54 54 55 61 69 72 67 63 63 63 62 60 58 57 54 52
9 7 5 6 6 7 7 6 6 7 10 7 29 36 36 36 36 36 39 42 46 47 51 55 58 60 61 62 60 59 60 62 65 63 64 61 60 68 74 73 70 67 66 65 64 62 61 56 54
13 10 8 11 8 9 3 3 12 9 11 21 25 29 26 26 31 37 43 48 51 54 56 59 61 65 67 68 69 68 68 68 69 69 71 72 71 69 71 77 79 74 71 69 67 65 61 58 56
7 8 9 9 5 10 3 11 8 11 30 33 28 19 16 25 35 40 45 50 53 56 60 63 68 71 73 75 77 75 74 75 77 77 75 77 77 75 71 74 79 82 78 70 65 64 60 57 55
7 7 4 10 4 7 6 9 4 7 13 22 18 14 19 22 32 40 45 50 56 61 64 68 72 76 80 82 82 82 81 81 82 81 77 75 75 77 74 73 76 78 78 74 68 65 61 56 54
5 2 8 7 7 11 11 11 9 11 5 3 8 11 9 14 25 38 50 57 62 66 70 75 80 82 83 83 84 87 88 86 84 79 79 77 71 73 69 72 72 74 75 72 66 62 57 55 50
5 4 6 6 9 9 7 11 8 14 13 8 7 8 12 14 23 40 58 64 68 70 75 81 79 78 76 77 79 84 87 87 83 80 76 73 70 65 72 67 67 69 66 62 58 54 48 45 42
5 11 10 8 12 7 4 16 2 18 16 6 9 16 17 21 29 45 64 68 72 74 79 78 75 75 78 79 82 85 90 87 83 76 69 68 69 61 65 69 54 63 62 57 53 47 40 38 35
Wind_Direction_500mb
317 330 338 109 82 60 278 190 206 103 50 67 55 101 115 64 11 109 101 172 149 68 94 44 178 191 184 183 179 193 178 132 123 82 11 357 342 332 329 330 334 343 353 359 359 0 6 11 13
319 330 355 35 84 89 340 71 78 73 123 116 85 105 58 72 62 90 142 112 155 138 97 59 106 173 172 152 144 143 99 113 123 51 8 2 351 335 328 327 330 335 343 350 352 354 359 2 4
66 41 56 88 111 53 126 12 111 74 62 75 104 75 70 42 42 100 111 108 103 133 119 97 83 154 165 170 156 130 65 38 27 8 346 348 355 344 329 321 322 326 333 339 343 343 346 350 352
145 80 36 82 108 339 99 331 22 113 80 59 105 68 81 53 71 114 124 114 112 93 113 98 97 164 172 195 305 342 320 330 329 326 322 325 332 333 329 323 323 325 328 332 335 337 339 339 336
81 73 52 57 81 97 43 19 10 63 97 39 99 136 81 82 116 103 135 156 135 111 122 152 201 199 163 181 350 332 326 320 313 308 307 316 320 324 322 321 322 322 322 325 327 329 330 328 326
74 86 59 240 98 131 45 10 9 47 62 21 64 88 89 117 119 91 115 121 110 183 156 198 185 254 333 321 331 324 312 318 307 300 301 302 304 310 311 313 323 329 327 326 326 326 325 323 320
91 83 179 91 132 50 2 8 31 39 53 28 25 71 137 152 142 121 130 190 157 158 216 175 264 310 306 321 325 328 322 316 309 305 300 294 298 303 305 306 314 320 318 316 316 316 316 314 311
68 96 43 25 18 43 354 26 8 45 50 48 23 99 159 184 177 160 141 137 136 119 115 21 351 328 307 310 321 319 325 315 305 301 292 286 287 289 293 296 306 310 314 313 316 316 315 314 310
14 59 42 14 34 67 17 17 28 14 95 63 54 96 112 149 185 162 176 203 225 257 261 285 304 300 295 307 323 314 316 302 296 291 283 283 282 284 291 297 302 306 311 314 317 316 315 312 308
56 76 79 350 39 26 5 48 353 19 64 72 76 77 88 18 145 147 188 257 271 274 291 298 302 303 300 304 305 303 299 295 290 290 289 290 293 294 295 298 303 305 309 310 310 311 310 307 304
41 78 145 32 37 23 2 8 5 15 52 60 84 117 38 34 101 120 210 282 294 302 299 283 300 304 306 308 310 311 308 302 299 295 292 291 290 292 295 296 296 299 302 305 307 308 306 303 299
88 43 80 46 27 34 348 332 12 39 115 87 46 105 6 78 133 159 217 270 308 325 326 321 316 315 317 319 317 315 311 306 302 300 294 292 293 294 295 297 298 298 300 303 304 304 304 302 299
79 110 63 80 24 37 348 342 308 67 91 334 20 115 49 89 135 2 28 68 16 336 321 313 314 309 308 310 311 310 309 306 305 302 299 296 294 293 293 292 294 296 298 301 302 303 303 301 297
115 106 110 40 19 58 4 295 358 110 28 137 65 98 48 76 55 64 77 65 342 283 302 318 322 317 317 314 308 306 303 300 299 298 297 295 293 292 290 290 291 292 296 298 300 302 302 300 296
140 82 38 15 347 13 338 34 155 154 89 105 152 128 96 92 118 88 105 211 245 268 272 274 280 297 307 312 309 301 298 299 300 297 296 295 293 291 291 289 290 291 294 295 297 298 298 297 293
96 75 49 344 15 0 16 80 129 231 128 94 172 149 142 142 155 303 326 332 330 322 320 313 307 301 291 296 304 306 302 297 296 297 296 299 299 296 291 291 290 291 291 291 293 295 293 293 290
12 128 1 347 37 357 55 293 4 21 255 24 79 141 132 124 79 25 6 3 357 350 347 340 334 325 315 301 298 301 302 299 296 295 295 296 296 295 295 292 291 291 290 291 290 290 290 290 288
328 347 333 37 356 9 5 0 17 48 66 59 89 87 97 73 46 22 11 8 4 1 357 353 352 346 339 321 310 304 302 305 301 300 298 296 296 296 296 294 292 290 289 288 288 288 287 290 290
311 358 354 27 34 14 30 17 32 54 61 59 61 66 68 70 52 24 12 9 9 9 7 6 2 3 356 345 332 323 315 311 308 304 306 311 308 302 297 294 291 288 288 288 286 286 287 286 287
27 22 335 296 3 12 23 35 51 54 60 60 57 55 50 50 40 26 17 16 19 17 15 13 10 7 3 357 345 328 318 311 302 292 301 301 299 296 294 292 290 286 283 284 283 282 282 282 282
55 90 324 244 332 320 51 318 117 58 71 66 59 57 52 47 41 36 29 22 15 15 14 13 12 6 1 356 348 340 332 322 317 305 291 297 294 294 296 293 289 286 283 282 278 275 276 276 274
27 6 327 328 23 237 18 266 225 111 66 58 60 55 51 45 38 34 30 31 29 25 22 21 19 15 10 4 358 350 339 330 324 314 304 295 290 290 291 291 287 284 281 277 275 271 268 268 269
245 323 305 41 81 61 337 79 293 134 81 73 61 55 50 45 46 40 36 34 31 23 19 14 12 7 3 359 355 348 341 334 326 318 308 294 290 291 292 289 285 282 280 277 273 270 267 265 263
300 27 49 43 91 19 276 95 230 228 164 94 65 58 53 45 38 34 28 23 18 15 10 6 3 1 358 354 349 343 336 329 323 319 312 303 293 285 287 287 285 282 277 274 271 267 264 262 259
35 46 348 358 6 225 284 55 243 142 103 116 90 64 59 47 38 31 24 19 13 10 5 2 358 355 351 347 344 339 333 326 319 313 307 302 296 289 284 284 285 282 279 274 267 263 259 257 254
359 122 142 236 262 267 7 240 246 131 107 94 81 80 68 39 31 26 19 13 8 4 -0 355 352 348 345 341 336 331 327 323 317 312 307 301 298 292 288 280 277 279 279 274 266 260 257 254 252
320 40 132 95 55 44 264 308 132 94 54 74 63 55 38 27 21 17 11 6 0 357 354 351 346 340 336 331 326 321 319 318 320 316 310 305 304 301 295 289 280 274 273 271 265 259 256 254 252
96 335 22 15 348 311 293 282 241 213 229 4 42 29 354 6 10 6 1 358 355 352 349 345 342 338 333 330 326 322 319 319 315 315 314 307 305 306 302 296 287 276 271 267 262 258 256 255 253
2 5 38 137 153 201 277 258 207 193 191 167 24 339 301 328 342 352 354 352 350 349 347 344 343 340 340 339 336 333 329 326 322 317 315 314 303 302 301 294 290 278 274 269 264 262 260 258 258
199 202 174 131 269 233 181 269 197 148 133 99 2 327 304 295 328 343 347 347 347 346 344 343 342 339 338 336 335 334 334 329 330 322 318 316 306 302 300 295 281 282 275 266 260 261 263 266 268
Wind_Speed_850mb
9 7 8 3 6 7 2 15 14 3 8 14 14 22 19 12 7 8 5 8 14 2 4 2 3 7 9 9 10 12 18 24 10 3 7 14 16 15 14 14 15 15 15 16 16 15 14 13 12
6 4 3 3 7 3 9 11 19 9 10 17 22 23 12 9 16 10 8 13 15 6 6 3 3 7 10 14 17 16 9 14 9 6 9 12 14 16 17 16 16 17 17 18 17 17 16 14 12
0 3 5 6 5 4 9 11 12 14 15 10 9 20 9 7 10 5 12 14 10 7 9 10 5 7 14 21 15 6 4 7 6 5 9 12 11 11 14 16 16 16 16 16 16 16 16 15 14
7 4 3 7 7 10 7 6 14 13 15 17 16 15 15 7 3 8 11 9 6 6 7 12 7 8 15 11 4 1 5 9 10 11 11 13 11 13 13 14 15 15 15 15 16 16 16 16 15
7 3 6 2 6 4 9 20 20 7 10 22 8 11 11 9 12 7 9 7 4 8 7 9 6 10 11 6 3 8 10 12 15 14 14 15 15 13 12 11 14 17 17 18 17 17 17 16 15
4 4 8 3 9 7 9 24 15 20 18 17 16 11 7 8 7 9 12 12 5 1 7 5 6 6 11 13 12 14 15 17 17 14 14 16 14 13 14 11 10 14 17 19 19 19 19 18 18
7 7 6 6 11 9 9 18 17 11 16 15 11 8 12 9 8 11 7 6 8 11 15 9 9 9 14 17 14 19 21 22 19 18 18 17 18 16 16 16 14 15 19 20 20 20 21 21 21
6 8 5 13 4 5 17 9 11 15 7 7 11 6 8 13 12 15 13 12 12 10 3 5 7 14 15 21 20 19 17 21 21 18 17 15 16 17 17 19 19 19 19 21 22 24 23 23 23
7 9 7 9 10 3 18 10 14 8 8 13 11 6 9 10 11 13 9 9 9 7 14 16 16 18 23 24 23 26 24 22 22 21 17 16 17 17 20 22 22 23 22 23 24 24 25 24 23
13 9 6 5 4 6 11 14 16 12 5 13 20 11 6 2 12 7 3 5 10 13 12 15 16 20 24 25 27 30 30 27 23 22 22 23 25 25 24 25 24 24 23 24 25 26 26 26 25
12 6 8 13 16 13 12 12 15 10 10 13 10 7 1 3 7 6 3 6 8 12 19 21 19 24 27 27 28 27 26 26 25 25 26 26 26 26 26 26 25 26 26 27 27 27 28 28 26
12 26 13 6 12 5 8 13 7 9 7 3 5 4 2 3 5 8 4 7 9 8 14 21 25 25 27 30 31 30 28 26 27 25 25 26 27 28 29 29 29 28 28 28 28 27 27 28 28
14 7 15 8 11 7 8 7 5 5 6 6 9 4 7 10 8 9 2 6 7 11 19 24 28 25 27 29 31 32 33 33 32 32 30 31 31 30 31 31 31 32 31 30 31 31 29 29 29
14 21 11 8 13 4 10 7 9 2 4 1 8 7 8 8 6 9 16 7 1 7 10 19 26 34 34 31 33 33 34 34 33 34 33 33 35 34 34 35 35 35 35 34 34 33 33 31 31
16 8 4 19 19 5 20 7 3 7 7 6 15 11 15 19 10 6 4 6 11 16 21 24 27 30 37 38 36 36 34 36 35 35 35 34 35 36 38 39 39 39 37 37 36 35 35 33 32
2 8 6 8 28 10 16 3 1 2 3 8 23 23 24 19 5 4 10 11 13 15 17 21 24 26 31 36 39 40 40 40 37 38 39 36 37 38 40 42 42 42 40 39 38 37 36 35 35
14 2 3 5 15 11 12 5 29 24 6 15 9 28 28 19 11 15 20 19 22 25 28 28 29 30 31 32 33 40 43 45 45 41 43 41 40 40 41 43 44 44 43 42 41 39 38 37 35
6 6 8 7 13 15 13 11 22 39 49 52 42 31 30 25 27 25 27 27 27 28 29 30 32 33 31 29 28 36 43 41 40 40 41 42 45 45 45 45 46 48 47 44 43 42 39 38 37
6 4 8 4 10 13 9 9 11 33 51 54 47 42 36 34 26 27 29 29 30 32 34 36 35 36 35 32 33 36 41 40 39 39 40 44 47 49 48 48 47 49 51 49 46 45 43 38 35
14 8 9 13 13 10 10 9 8 26 31 47 47 47 41 35 33 34 36 39 40 43 43 42 41 41 40 37 35 37 42 44 43 44 47 52 56 55 55 51 49 49 51 52 49 48 45 41 34
6 6 5 10 16 2 3 3 6 14 41 45 49 49 48 47 45 43 43 44 46 50 50 49 46 45 45 43 42 40 38 38 41 37 36 40 50 55 53 52 52 53 54 53 51 49 48 45 39
6 7 9 11 11 2 11 7 8 9 14 29 42 45 43 38 37 40 44 46 47 49 48 49 51 52 52 51 50 49 49 52 50 50 50 53 57 61 61 61 58 57 57 56 54 51 51 50 46
8 4 4 3 5 6 12 7 6 12 7 11 34 40 41 38 40 42 43 43 43 46 49 50 52 53 54 54 54 56 56 56 56 54 54 55 61 69 72 67 63 63 63 62 60 58 57 54 52
9 7 5 6 6 7 7 6 6 7 10 7 29 36 36 36 36 36 39 42 46 47 51 55 58 60 61 62 60 59 60 62 65 63 64 61 60 68 74 73 70 67 66 65 64 62 61 56 54
13 10 8 11 8 9 3 3 12 9 11 21 25 29 26 26 31 37 43 48 51 54 56 59 61 65 67 68 69 68 68 68 69 69 71 72 71 69 71 77 79 74 71 69 67 65 61 58 56
7 8 9 9 5 10 3 11 8 11 30 33 28 19 16 25 35 40 45 50 53 56 60 63 68 71 73 75 77 75 74 75 77 77 75 77 77 75 71 74 79 82 78 70 65 64 60 57 55
7 7 4 10 4 7 6 9 4 7 13 22 18 14 19 22 32 40 45 50 56 61 64 68 72 76 80 82 82 82 81 81 82 81 77 75 75 77 74 73 76 78 78 74 68 65 61 56 54
5 2 8 7 7 11 11 11 9 11 5 3 8 11 9 14 25 38 50 57 62 66 70 75 80 82 83 83 84 87 88 86 84 79 79 77 71 73 69 72 72 74 75 72 66 62 57 55 50
5 4 6 6 9 9 7 11 8 14 13 8 7 8 12 14 23 40 58 64 68 70 75 81 79 78 76 77 79 84 87 87 83 80 76 73 70 65 72 67 67 69 66 62 58 54 48 45 42
5 11 10 8 12 7 4 16 2 18 16 6 9 16 17 21 29 45 64 68 72 74 79 78 75 75 78 79 82 85 90 87 83 76 69 68 69 61 65 69 54 63 62 57 53 47 40 38 35
Wind_Direction_850mb
317 330 338 109 82 60 278 190 206 103 50 67 55 101 115 64 11 109 101 172 149 68 94 44 178 191 184 183 179 193 178 132 123 82 11 357 342 332 329 330 334 343 353 359 359 0 6 11 13
319 330 355 35 84 89 340 71 78 73 123 116 85 105 58 72 62 90 142 112 155 138 97 59 106 173 172 152 144 143 99 113 123 51 8 2 351 335 328 327 330 335 343 350 352 354 359 2 4
66 41 56 88 111 53 126 12 111 74 62 75 104 75 70 42 42 100 111 108 103 133 119 97 83 154 165 170 156 130 65 38 27 8 346 348 355 344 329 321 322 326 333 339 343 343 346 350 352
145 80 36 82 108 339 99 331 22 113 80 59 105 68 81 53 71 114 124 114 112 93 113 98 97 164 172 195 305 342 320 330 329 326 322 325 332 333 329 323 323 325 328 332 335 337 339 339 336
81 73 52 57 81 97 43 19 10 63 97 39 99 136 81 82 116 103 135 156 135 111 122 152 201 199 163 181 350 332 326 320 313 308 307 316 320 324 322 321 322 322 322 325 327 329 330 328 326
74 86 59 240 98 131 45 10 9 47 62 21 64 88 89 117 119 91 115 121 110 183 156 198 185 254 333 321 331 324 312 318 307 300 301 302 304 310 311 313 323 329 327 326 326 326 325 323 320
91 83 179 91 132 50 2 8 31 39 53 28 25 71 137 152 142 121 130 190 157 158 216 175 264 310 306 321 325 328 322 316 309 305 300 294 298 303 305 306 314 320 318 316 316 316 316 314 311
68 96 43 25 18 43 354 26 8 45 50 48 23 99 159 184 177 160 141 137 136 119 115 21 351 328 307 310 321 319 325 315 305 301 292 286 287 289 293 296 306 310 314 313 316 316 315 314 310
14 59 42 14 34 67 17 17 28 14 95 63 54 96 112 149 185 162 176 203 225 257 261 285 304 300 295 307 323 314 316 302 296 291 283 283 282 284 291 297 302 306 311 314 317 316 315 312 308
56 76 79 350 39 26 5 48 353 19 64 72 76 77 88 18 145 147 188 257 271 274 291 298 302 303 300 304 305 303 299 295 290 290 289 290 293 294 295 298 303 305 309 310 310 311 310 307 304
41 78 145 32 37 23 2 8 5 15 52 60 84 117 38 34 101 120 210 282 294 302 299 283 300 304 306 308 310 311 308 302 299 295 292 291 290 292 295 296 296 299 302 305 307 308 306 303 299
88 43 80 46 27 34 348 332 12 39 115 87 46 105 6 78 133 159 217 270 308 325 326 321 316 315 317 319 317 315 311 306 302 300 294 292 293 294 295 297 298 298 300 303 304 304 304 302 299
79 110 63 80 24 37 348 342 308 67 91 334 20 115 49 89 135 2 28 68 16 336 321 313 314 309 308 310 311 310 309 306 305 302 299 296 294 293 293 292 294 296 298 301 302 303 303 301 297
115 106 110 40 19 58 4 295 358 110 28 137 65 98 48 76 55 64 77 65 342 283 302 318 322 317 317 314 308 306 303 300 299 298 297 295 293 292 290 290 291 292 296 298 300 302 302 300 296
140 82 38 15 347 13 338 34 155 154 89 105 152 128 96 92 118 88 105 211 245 268 272 274 280 297 307 312 309 301 298 299 300 297 296 295 293 291 291 289 290 291 294 295 297 298 298 297 293
96 75 49 344 15 0 16 80 129 231 128 94 172 149 142 142 155 303 326 332 330 322 320 313 307 301 291 296 304 306 302 297 296 297 296 299 299 296 291 291 290 291 291 291 293 295 293 293 290
12 128 1 347 37 357 55 293 4 21 255 24 79 141 132 124 79 25 6 3 357 350 347 340 334 325 315 301 298 301 302 299 296 295 295 296 296 295 295 292 291 291 290 291 290 290 290 290 288
328 347 333 37 356 9 5 0 17 48 66 59 89 87 97 73 46 22 11 8 4 1 357 353 352 346 339 321 310 304 302 305 301 300 298 296 296 296 296 294 292 290 289 288 288 288 287 290 290
311 358 354 27 34 14 30 17 32 54 61 59 61 66 68 70 52 24 12 9 9 9 7 6 2 3 356 345 332 323 315 311 308 304 306 311 308 302 297 294 291 288 288 288 286 286 287 286 287
27 22 335 296 3 12 23 35 51 54 60 60 57 55 50 50 40 26 17 16 19 17 15 13 10 7 3 357 345 328 318 311 302 292 301 301 299 296 294 292 290 286 283 284 283 282 282 282 282
55 90 324 244 332 320 51 318 117 58 71 66 59 57 52 47 41 36 29 22 15 15 14 13 12 6 1 356 348 340 332 322 317 305 291 297 294 294 296 293 289 286 283 282 278 275 276 276 274
27 6 327 328 23 237 18 266 225 111 66 58 60 55 51 45 38 34 30 31 29 25 22 21 19 15 10 4 358 350 339 330 324 314 304 295 290 290 291 291 287 284 281 277 275 271 268 268 269
245 323 305 41 81 61 337 79 293 134 81 73 61 55 50 45 46 40 36 34 31 23 19 14 12 7 3 359 355 348 341 334 326 318 308 294 290 291 292 289 285 282 280 277 273 270 267 265 263
300 27 49 43 91 19 276 95 230 228 164 94 65 58 53 45 38 34 28 23 18 15 10 6 3 1 358 354 349 343 336 329 323 319 312 303 293 285 287 287 285 282 277 274 271 267 264 262 259
35 46 348 358 6 225 284 55 243 142 103 116 90 64 59 47 38 31 24 19 13 10 5 2 358 355 351 347 344 339 333 326 319 313 307 302 296 289 284 284 285 282 279 274 267 263 259 257 254
359 122 142 236 262 267 7 240 246 131 107 94 81 80 68 39 31 26 19 13 8 4 -0 355 352 348 345 341 336 331 327 323 317 312 307 301 298 292 288 280 277 279 279 274 266 260 257 254 252
320 40 132 95 55 44 264 308 132 94 54 74 63 55 38 27 21 17 11 6 0 357 354 351 346 340 336 331 326 321 319 318 320 316 310 305 304 301 295 289 280 274 273 271 265 259 256 254 252
96 335 22 15 348 311 293 282 241 213 229 4 42 29 354 6 10 6 1 358 355 352 349 345 342 338 333 330 326 322 319 319 315 315 314 307 305 306 302 296 287 276 271 267 262 258 256 255 253
2 5 38 137 153 201 277 258 207 193 191 167 24 339 301 328 342 352 354 352 350 349 347 344 343 340 340 339 336 333 329 326 322 317 315 314 303 302 301 294 290 278 274 269 264 262 260 258 258
199 202 174 131 269 233 181 269 197 148 133 99 2 327 304 295 328 343 347 347 347 346 344 343 342 339 338 336 335 334 334 329 330 322 318 316 306 302 300 295 281 282 275 266 260 261 263 266 268